N767AZ KFLL-KMIA

Flight info

Callsign N767AZ
Flight time 0h 14m
Altitude 8000
Route PABOY/N0284F070
Aircraft HDJT/L-SABDGRWY/H

Departure

Time 2026-05-04 10:51
Airport Fort Lauderdale Hollywood International Airport (KFLL)

Arrival

Time 2026-05-04 11:05
Airport Miami International Airport (KMIA)
Time Latitude Longitude Altitude Speed Heading
2026-05-04 10:25 26.07287 -80.15618 10 ft 0 kts 43°
2026-05-04 10:47 26.07296 -80.15609 10 ft 6 kts 37°
2026-05-04 10:49 26.07664 -80.15125 10 ft 16 kts 339°
2026-05-04 10:49 26.07685 -80.15159 10 ft 0 kts 270°
2026-05-04 10:50 26.07685 -80.15160 10 ft 1 kts 270°
2026-05-04 10:51 26.10992 -80.19819 2971 ft 245 kts 30°
2026-05-04 10:52 26.12219 -80.18376 3422 ft 271 kts 60°
2026-05-04 10:52 26.12776 -80.16370 4210 ft 275 kts 79°
2026-05-04 10:52 26.13059 -80.14228 4882 ft 283 kts 81°
2026-05-04 10:54 26.12113 -79.98991 5999 ft 285 kts 133°
2026-05-04 10:54 26.10618 -79.97787 5992 ft 257 kts 162°
2026-05-04 10:56 25.99301 -79.98882 6004 ft 235 kts 188°
2026-05-04 10:56 25.97671 -79.99011 6007 ft 235 kts 188°
2026-05-04 10:56 25.96040 -79.99136 6005 ft 235 kts 187°
2026-05-04 10:57 25.94411 -79.99263 6006 ft 235 kts 188°
2026-05-04 10:57 25.92782 -79.99391 6006 ft 234 kts 188°
2026-05-04 10:57 25.91150 -79.99520 6002 ft 235 kts 188°
2026-05-04 10:57 25.89538 -79.99759 5899 ft 232 kts 200°
2026-05-04 10:58 25.88069 -80.00462 5628 ft 228 kts 211°
2026-05-04 10:58 25.86653 -80.01258 5327 ft 227 kts 210°
2026-05-04 10:58 25.85241 -80.02029 5011 ft 226 kts 208°
2026-05-04 10:58 25.83859 -80.02801 4684 ft 224 kts 213°
2026-05-04 10:59 25.82671 -80.03871 4362 ft 218 kts 230°
2026-05-04 10:59 25.81806 -80.05236 4067 ft 216 kts 244°
2026-05-04 10:59 25.81319 -80.06792 3763 ft 212 kts 259°
2026-05-04 10:59 25.81179 -80.08402 3464 ft 208 kts 269°
2026-05-04 11:00 25.81118 -80.10003 3164 ft 207 kts 268°
2026-05-04 11:01 25.80707 -80.20055 1343 ft 158 kts 268°
2026-05-04 11:02 25.80659 -80.21200 1141 ft 136 kts 270°
2026-05-04 11:02 25.80617 -80.22169 975 ft 117 kts 270°
2026-05-04 11:05 25.80585 -80.29005 9 ft 2 kts 145°
2026-05-04 11:06 25.80586 -80.28999 9 ft 2 kts 23°
2026-05-04 11:06 25.80592 -80.28999 9 ft 0 kts 356°